Historique des mesures à Cassis (13260), France
Quotidien Résumé Janvier 22, 2018 Unités:  Métrique    US   Métrique/US
« Précédent (Jour)
Suivant (Jour) »
Quotidien Hebdomadaire Mensuel Annuel Période au choix
  Maximum: Minimum: Moyenne:
Température: TemperatureC °C 13.6 °C 14.5 °C
Point de rosée: DewpointC °C 6.9 °C 7.5 °C
Humidité: Humidity % 54 % 59 %
Vitesse du vent: 0 km/h 8.9 km/h 28.6 km/h
Rafales: 0 km/h - -
Vent:- - West
Pression: PressurehPa hPa 1012.8 hPa -
Précipitations: 0.0 mm    
Historical Graphs
 
 
Mesures pour : Janvier 22, 2018
Heure Temperature Point de rosée Pression Vent Vitesse du vent Rafales Humidité Pluie (par heure) Conditions
TemperatureC °C DewpointC °C PressurehPa hPa Calm     Humidity % HourlyPrecipMM mm SoftwareType W/m2
01:12 14.5 °C 7.8 °C 1013.1 hPa WNW 47.3 km/h 47.3 km/h 64 % 0.0 mm open2300-1.11 W/m2
02:12 14.1 °C 7.6 °C 1013.1 hPa WNW 16.3 km/h 16.3 km/h 65 % 0.0 mm open2300-1.11 W/m2
03:12 13.8 °C 7.5 °C 1013.4 hPa NNW 13.2 km/h 45.4 km/h 66 % 0.0 mm open2300-1.11 W/m2
04:12 13.7 °C 7.0 °C 1013.1 hPa NNE 14.5 km/h 54.9 km/h 64 % 0.0 mm open2300-1.11 W/m2
05:12 13.6 °C 6.9 °C 1013.1 hPa West 15 km/h 34.1 km/h 64 % 0.0 mm open2300-1.11 W/m2
06:12 13.6 °C 6.9 °C 1012.8 hPa NW 39.9 km/h 39.9 km/h 64 % 0.0 mm open2300-1.11 W/m2
07:12 13.9 °C 6.9 °C 1012.8 hPa WNW 40.7 km/h 40.7 km/h 63 % 0.0 mm open2300-1.11 W/m2
08:12 13.6 °C 7.1 °C 1012.8 hPa NE 25.4 km/h 25.4 km/h 65 % 0.0 mm open2300-1.11 W/m2
09:12 14.2 °C 7.4 °C 1012.8 hPa WNW 30.1 km/h 30.1 km/h 64 % 0.0 mm open2300-1.11 W/m2
10:12 15.3 °C 7.8 °C 1013.4 hPa NW 52.8 km/h 52.8 km/h 61 % 0.0 mm open2300-1.11 W/m2
11:12 16.2 °C 8.5 °C 1014.1 hPa NW 44.1 km/h 44.1 km/h 60 % 0.0 mm open2300-1.11 W/m2
12:12 16.5 °C 7.9 °C 1013.4 hPa NNW 24.3 km/h 46.3 km/h 57 % 0.0 mm open2300-1.11 W/m2
13:12 17.3 °C 7.8 °C 1013.1 hPa WNW 34.1 km/h 34.1 km/h 54 % 0.0 mm open2300-1.11 W/m2
14:12 17.4 °C 7.9 °C 1013.1 hPa North 23 km/h 35.2 km/h 54 % 0.0 mm open2300-1.11 W/m2
15:12 17.2 °C 7.8 °C 1013.1 hPa WNW 24.3 km/h 69.4 km/h 54 % 0.0 mm open2300-1.11 W/m2
16:12 16.1 °C 7.8 °C 1013.1 hPa NW 46.8 km/h 46.8 km/h 58 % 0.0 mm open2300-1.11 W/m2
17:12 15.9 °C 7.9 °C 1013.1 hPa West 39.9 km/h 44.6 km/h 59 % 0.0 mm open2300-1.11 W/m2
18:12 15.4 °C 8.6 °C 1012.8 hPa WNW 40.7 km/h 46.8 km/h 64 % 0.0 mm open2300-1.11 W/m2
19:12 15.4 °C 8.8 °C 1013.4 hPa NW 14 km/h 17.9 km/h 65 % 0.0 mm open2300-1.11 W/m2
20:12 15.4 °C 9.3 °C 1013.4 hPa NNW 23 km/h 46.3 km/h 67 % 0.0 mm open2300-1.11 W/m2
21:12 14.6 °C 9.2 °C 1013.1 hPa NNW 8.9 km/h 38.8 km/h 70 % 0.0 mm open2300-1.11 W/m2
22:12 14.9 °C 7.4 °C 1012.8 hPa NNW 45.4 km/h 45.4 km/h 61 % 0.0 mm open2300-1.11 W/m2
23:12 14.4 °C 7.0 °C 1013.4 hPa West 24.8 km/h 31.9 km/h 61 % 0.0 mm open2300-1.11 W/m2
Observations météo à CASSIS
WU-History script by Weather Underground - 1 mb